TimeEST,TemperatureF,Dew PointF,Humidity,Sea Level PressureIn,VisibilityMPH,Wind Direction,Wind SpeedMPH,Gust SpeedMPH,PrecipitationIn,Events,Conditions,WindDirDegrees,DateUTC
12:15 AM,33.8,33.8,100,29.79,4.0,East,3.5,-,N/A,,Overcast,100,2013-02-14 05:15:00
12:35 AM,32.7,32.7,100,29.80,3.0,Calm,Calm,-,N/A,,Scattered Clouds,0,2013-02-14 05:35:00
12:55 AM,31.6,31.6,100,29.81,1.8,Calm,Calm,-,N/A,,Mist,0,2013-02-14 05:55:00
1:15 AM,30.9,30.9,100,29.81,4.0,Calm,Calm,-,N/A,,Clear,0,2013-02-14 06:15:00
1:35 AM,30.4,30.4,100,29.82,4.0,WNW,3.5,-,N/A,,Scattered Clouds,290,2013-02-14 06:35:00
1:55 AM,31.6,31.6,100,29.83,2.5,Calm,Calm,-,N/A,,Scattered Clouds,0,2013-02-14 06:55:00
2:15 AM,30.9,30.9,100,29.83,1.5,Calm,Calm,-,N/A,,Scattered Clouds,0,2013-02-14 07:15:00
2:35 AM,29.1,29.1,100,29.84,2.5,Calm,Calm,-,N/A,,Clear,0,2013-02-14 07:35:00
2:55 AM,29.8,29.8,100,29.85,2.0,Calm,Calm,-,N/A,,Mostly Cloudy,0,2013-02-14 07:55:00
3:15 AM,29.8,29.8,100,29.86,2.5,Calm,Calm,-,N/A,,Mostly Cloudy,0,2013-02-14 08:15:00
3:35 AM,30.4,30.4,100,29.87,2.5,Calm,Calm,-,N/A,,Scattered Clouds,0,2013-02-14 08:35:00
3:55 AM,31.5,31.5,100,29.88,2.5,Calm,Calm,-,N/A,,Clear,0,2013-02-14 08:55:00
4:15 AM,28.6,28.6,100,29.89,2.0,Calm,Calm,-,N/A,,Clear,0,2013-02-14 09:15:00
4:35 AM,29.1,29.1,100,29.89,1.5,Calm,Calm,-,N/A,,Mist,0,2013-02-14 09:35:00
4:55 AM,28.0,28.0,100,29.90,1.8,Calm,Calm,-,N/A,,Mist,0,2013-02-14 09:55:00
5:15 AM,28.2,28.2,100,29.92,2.5,East,3.5,-,N/A,,Clear,100,2013-02-14 10:15:00
5:35 AM,27.1,27.1,100,29.92,3.0,Calm,Calm,-,N/A,,Clear,0,2013-02-14 10:35:00
5:55 AM,27.3,27.3,100,29.92,4.0,Calm,Calm,-,N/A,,Clear,0,2013-02-14 10:55:00
6:15 AM,26.8,26.8,100,29.93,2.5,Calm,Calm,-,N/A,,Clear,0,2013-02-14 11:15:00
6:35 AM,27.3,27.3,100,29.93,3.0,Calm,Calm,-,N/A,,Clear,0,2013-02-14 11:35:00
6:55 AM,26.2,26.2,100,29.94,3.0,East,4.6,-,N/A,,Clear,100,2013-02-14 11:55:00
7:15 AM,26.4,26.4,100,29.95,3.0,Calm,Calm,-,N/A,,Clear,0,2013-02-14 12:15:00
7:35 AM,27.3,27.3,100,29.96,4.0,Calm,Calm,-,N/A,,Clear,0,2013-02-14 12:35:00
7:55 AM,29.8,29.8,100,29.98,3.0,Calm,Calm,-,N/A,,Clear,0,2013-02-14 12:55:00
8:15 AM,32.2,32.2,100,29.99,3.0,Calm,Calm,-,N/A,,Clear,0,2013-02-14 13:15:00
8:35 AM,34.0,34.0,100,29.99,2.5,Calm,Calm,-,N/A,,Clear,0,2013-02-14 13:35:00
8:55 AM,37.0,37.0,100,30.00,5.0,Calm,Calm,-,N/A,,Clear,0,2013-02-14 13:55:00
9:15 AM,38.3,38.3,100,30.00,7.0,Calm,Calm,-,N/A,,Clear,0,2013-02-14 14:15:00
9:35 AM,40.3,35.1,82,30.01,10.0,Calm,Calm,-,N/A,,Clear,0,2013-02-14 14:35:00
9:55 AM,41.0,35.4,81,30.01,10.0,Calm,Calm,-,N/A,,Clear,0,2013-02-14 14:55:00
10:15 AM,41.9,36.0,79,30.02,10.0,Calm,Calm,-,N/A,,Clear,0,2013-02-14 15:15:00
10:35 AM,42.8,36.5,78,30.01,10.0,ESE,3.5,-,N/A,,Clear,110,2013-02-14 15:35:00
10:55 AM,43.7,36.5,76,30.01,10.0,SE,3.5,-,N/A,,Clear,140,2013-02-14 15:55:00
11:15 AM,45.1,36.0,70,30.01,10.0,Calm,Calm,-,N/A,,Clear,0,2013-02-14 16:15:00
11:35 AM,45.7,35.6,68,30.01,10.0,Calm,Calm,-,N/A,,Clear,0,2013-02-14 16:35:00
11:55 AM,47.3,35.8,64,30.01,10.0,SW,6.9,-,N/A,,Clear,220,2013-02-14 16:55:00
12:15 PM,48.2,36.3,63,30.01,10.0,SSW,4.6,-,N/A,,Clear,200,2013-02-14 17:15:00
12:35 PM,48.6,36.1,62,29.99,10.0,WSW,4.6,-,N/A,,Clear,240,2013-02-14 17:35:00
12:55 PM,49.5,37.0,62,30.00,10.0,West,4.6,-,N/A,,Clear,270,2013-02-14 17:55:00
1:15 PM,49.3,37.0,63,29.98,10.0,SSE,3.5,-,N/A,,Clear,160,2013-02-14 18:15:00
1:35 PM,50.2,34.9,56,29.98,10.0,Calm,Calm,-,N/A,,Clear,0,2013-02-14 18:35:00
1:55 PM,50.2,35.8,58,29.97,10.0,SSW,4.6,-,N/A,,Clear,210,2013-02-14 18:55:00
2:15 PM,50.9,35.4,55,29.97,10.0,West,3.5,-,N/A,,Clear,280,2013-02-14 19:15:00
2:35 PM,50.7,34.3,53,29.97,10.0,Calm,Calm,-,N/A,,Clear,0,2013-02-14 19:35:00
2:55 PM,51.3,33.4,51,29.97,10.0,SSW,8.1,-,N/A,,Clear,210,2013-02-14 19:55:00
3:15 PM,51.6,32.0,47,29.97,10.0,WSW,3.5,-,N/A,,Clear,240,2013-02-14 20:15:00
3:35 PM,51.3,34.7,53,29.97,10.0,SW,5.8,-,N/A,,Clear,220,2013-02-14 20:35:00
3:55 PM,51.1,33.8,52,29.95,10.0,Calm,Calm,-,N/A,,Clear,0,2013-02-14 20:55:00
4:15 PM,51.1,34.0,52,29.95,10.0,South,4.6,-,N/A,,Clear,190,2013-02-14 21:15:00
4:35 PM,51.1,34.2,52,29.95,10.0,South,3.5,-,N/A,,Clear,190,2013-02-14 21:35:00
4:55 PM,50.7,34.2,53,29.97,10.0,Calm,Calm,-,N/A,,Clear,0,2013-02-14 21:55:00
5:15 PM,50.0,32.5,51,29.96,10.0,Calm,Calm,-,N/A,,Clear,0,2013-02-14 22:15:00
5:35 PM,48.4,32.2,54,29.97,10.0,Calm,Calm,-,N/A,,Clear,0,2013-02-14 22:35:00
5:55 PM,43.3,33.1,67,29.97,10.0,SE,3.5,-,N/A,,Clear,140,2013-02-14 22:55:00
6:15 PM,43.0,32.0,65,29.97,10.0,SE,4.6,-,N/A,,Clear,130,2013-02-14 23:15:00
6:35 PM,40.1,32.0,73,29.98,10.0,SE,3.5,-,N/A,,Clear,140,2013-02-14 23:35:00
6:55 PM,39.9,32.4,74,29.97,10.0,ESE,3.5,-,N/A,,Clear,120,2013-02-14 23:55:00
7:15 PM,39.4,32.4,76,29.98,10.0,ESE,4.6,-,N/A,,Clear,120,2013-02-15 00:15:00
7:35 PM,34.7,32.0,90,29.98,10.0,Calm,Calm,-,N/A,,Clear,0,2013-02-15 00:35:00
7:55 PM,33.6,32.0,94,29.99,10.0,Calm,Calm,-,N/A,,Clear,0,2013-02-15 00:55:00
8:15 PM,33.1,31.8,95,29.99,10.0,Calm,Calm,-,N/A,,Clear,0,2013-02-15 01:15:00
8:35 PM,32.2,32.0,99,29.99,10.0,Calm,Calm,-,N/A,,Clear,0,2013-02-15 01:35:00
8:55 PM,33.3,32.0,95,29.99,10.0,Calm,Calm,-,N/A,,Clear,0,2013-02-15 01:55:00
9:15 PM,31.8,31.6,99,29.99,10.0,Calm,Calm,-,N/A,,Clear,0,2013-02-15 02:15:00
9:35 PM,30.9,30.9,100,29.99,10.0,Calm,Calm,-,N/A,,Clear,0,2013-02-15 02:35:00
9:55 PM,30.4,30.4,100,29.99,10.0,Calm,Calm,-,N/A,,Clear,0,2013-02-15 02:55:00
10:15 PM,31.3,31.3,100,29.98,10.0,Calm,Calm,-,N/A,,Clear,0,2013-02-15 03:15:00
10:35 PM,29.3,29.3,100,29.99,10.0,Calm,Calm,-,N/A,,Clear,0,2013-02-15 03:35:00
10:55 PM,29.5,29.5,100,29.99,10.0,Calm,Calm,-,N/A,,Clear,0,2013-02-15 03:55:00
11:15 PM,37.6,32.9,83,30.00,10.0,South,3.5,-,N/A,,Clear,170,2013-02-15 04:15:00
11:35 PM,37.6,32.9,83,30.00,10.0,SSW,3.5,-,N/A,,Clear,200,2013-02-15 04:35:00
11:55 PM,36.5,32.4,85,30.00,10.0,South,4.6,-,N/A,,Clear,190,2013-02-15 04:55:00